THY53R LTCG-LTAC

Flight info

Callsign THY53R
Flight time 0h 39m
Altitude 32000
Route TEMEL1M TEMEL UW71 ILHAN ILHAN1R
Aircraft B738/M-SDE2E3FGHIRWXY/LB1

Departure

Time 2026-05-05 19:00
Airport Trabzon International Airport (LTCG)

Arrival

Time 2026-05-05 19:40
Airport Esenboğa International Airport (LTAC)
Time Latitude Longitude Altitude Speed Heading
2026-05-05 18:39 40.99583 39.78036 115 ft 0 kts 202°
2026-05-05 18:52 40.99596 39.78042 111 ft 2 kts 200°
2026-05-05 18:52 40.99611 39.78049 113 ft 2 kts 196°
2026-05-05 18:52 40.99628 39.78054 111 ft 2 kts 183°
2026-05-05 18:52 40.99644 39.78051 110 ft 2 kts 136°
2026-05-05 18:53 40.99651 39.78037 110 ft 1 kts 113°
2026-05-05 18:53 40.99652 39.78035 110 ft 0 kts 113°
2026-05-05 18:55 40.99649 39.78044 114 ft 4 kts 113°
2026-05-05 18:55 40.99624 39.78123 113 ft 16 kts 112°
2026-05-05 18:55 40.99568 39.78299 112 ft 22 kts 112°
2026-05-05 18:56 40.99513 39.78484 113 ft 21 kts 112°
2026-05-05 18:56 40.99457 39.78661 113 ft 21 kts 112°
2026-05-05 18:56 40.99403 39.78834 114 ft 20 kts 112°
2026-05-05 18:56 40.99349 39.79008 107 ft 22 kts 112°
2026-05-05 18:57 40.99358 39.79196 103 ft 21 kts 68°
2026-05-05 18:57 40.99381 39.79381 105 ft 21 kts 108°
2026-05-05 18:57 40.99327 39.79554 107 ft 20 kts 112°
2026-05-05 18:57 40.99270 39.79740 106 ft 26 kts 112°
2026-05-05 18:58 40.99199 39.79978 104 ft 28 kts 115°
2026-05-05 18:58 40.99129 39.80190 102 ft 21 kts 120°
2026-05-05 18:58 40.99036 39.80320 102 ft 15 kts 113°
2026-05-05 18:58 40.99043 39.80402 100 ft 8 kts 28°
2026-05-05 18:59 40.99076 39.80363 101 ft 8 kts 289°
2026-05-05 18:59 40.99080 39.80350 101 ft 0 kts 294°
2026-05-05 18:59 40.99089 39.80324 100 ft 16 kts 293°
2026-05-05 18:59 40.99252 39.79798 106 ft 105 kts 292°
2026-05-05 19:00 40.99623 39.78593 153 ft 172 kts 292°
2026-05-05 19:00 41.00088 39.77163 1251 ft 160 kts 294°
2026-05-05 19:00 41.00580 39.75785 2191 ft 175 kts 296°
2026-05-05 19:00 41.01152 39.74204 2583 ft 205 kts 292°
2026-05-05 19:01 41.01424 39.72238 2857 ft 228 kts 275°
2026-05-05 19:01 41.01553 39.70080 3302 ft 244 kts 275°
2026-05-05 19:01 41.01704 39.67749 3773 ft 260 kts 275°
2026-05-05 19:01 41.01869 39.65330 4656 ft 265 kts 275°
2026-05-05 19:02 41.02041 39.62888 5541 ft 269 kts 275°
2026-05-05 19:02 41.02222 39.60396 6380 ft 275 kts 275°
2026-05-05 19:02 41.02409 39.57863 7209 ft 278 kts 275°
2026-05-05 19:02 41.02601 39.55294 8037 ft 282 kts 275°
2026-05-05 19:03 41.02891 39.51434 9240 ft 289 kts 275°
2026-05-05 19:03 41.03296 39.46055 10844 ft 296 kts 274°
2026-05-05 19:03 41.03708 39.40588 12426 ft 302 kts 274°
2026-05-05 19:03 41.04127 39.34999 13981 ft 308 kts 274°
2026-05-05 19:04 41.04552 39.29295 15363 ft 314 kts 274°
2026-05-05 19:04 41.04942 39.24024 16613 ft 320 kts 274°
2026-05-05 19:04 41.05379 39.18093 18008 ft 327 kts 273°
2026-05-05 19:04 41.05834 39.12038 19180 ft 337 kts 274°
2026-05-05 19:05 41.06432 39.05559 19516 ft 372 kts 275°
2026-05-05 19:05 41.07102 38.98526 20127 ft 394 kts 275°
2026-05-05 19:05 41.07782 38.91247 21164 ft 401 kts 275°
2026-05-05 19:05 41.08463 38.83842 22238 ft 408 kts 274°
2026-05-05 19:06 41.09147 38.76320 23253 ft 414 kts 274°
2026-05-05 19:06 41.09835 38.68672 24169 ft 419 kts 274°
2026-05-05 19:06 41.10476 38.60946 25042 ft 423 kts 274°
2026-05-05 19:06 41.11089 38.53602 25806 ft 428 kts 274°
2026-05-05 19:07 41.11756 38.45723 26583 ft 432 kts 274°
2026-05-05 19:07 41.12426 38.37747 27358 ft 437 kts 274°
2026-05-05 19:07 41.13095 38.29691 28082 ft 441 kts 274°
2026-05-05 19:07 41.13743 38.21786 29108 ft 438 kts 274°
2026-05-05 19:08 41.14388 38.13787 30085 ft 435 kts 274°
2026-05-05 19:08 41.15027 38.05791 30754 ft 437 kts 274°
2026-05-05 19:08 41.15663 37.97770 31409 ft 437 kts 274°
2026-05-05 19:08 41.16297 37.89732 32044 ft 439 kts 274°
2026-05-05 19:09 41.17706 37.73329 32069 ft 451 kts 275°
2026-05-05 19:09 41.19000 37.57095 32039 ft 431 kts 272°
2026-05-05 19:10 41.20021 37.41235 32071 ft 434 kts 274°
2026-05-05 19:10 41.21220 37.25045 32064 ft 444 kts 274°
2026-05-05 19:11 41.22480 37.08735 32042 ft 439 kts 275°
2026-05-05 19:11 41.23732 36.92829 32062 ft 430 kts 275°
2026-05-05 19:12 41.24952 36.76895 32086 ft 439 kts 275°
2026-05-05 19:12 41.26171 36.60699 32084 ft 445 kts 275°
2026-05-05 19:13 41.25873 36.52542 32074 ft 441 kts 257°
2026-05-05 19:13 41.23942 36.44895 32075 ft 432 kts 249°
2026-05-05 19:13 41.19700 36.30011 32070 ft 432 kts 250°
2026-05-05 19:14 41.15466 36.14848 32055 ft 443 kts 250°
2026-05-05 19:14 41.11143 35.99440 32035 ft 445 kts 250°
2026-05-05 19:15 41.06808 35.84334 32021 ft 432 kts 250°
2026-05-05 19:15 41.02476 35.69604 32037 ft 434 kts 250°
2026-05-05 19:16 40.98109 35.54438 32028 ft 445 kts 250°
2026-05-05 19:16 40.93696 35.39163 32007 ft 439 kts 251°
2026-05-05 19:17 40.89390 35.24310 32006 ft 430 kts 251°
2026-05-05 19:17 40.85054 35.09426 32013 ft 439 kts 251°
2026-05-05 19:18 40.80606 34.94254 32006 ft 446 kts 251°
2026-05-05 19:18 40.76141 34.79114 31978 ft 435 kts 252°
2026-05-05 19:19 40.71768 34.64457 32014 ft 432 kts 252°
2026-05-05 19:19 40.67269 34.49543 32000 ft 443 kts 252°
2026-05-05 19:20 40.62669 34.34375 31982 ft 446 kts 252°
2026-05-05 19:20 40.58151 34.19572 31954 ft 424 kts 253°
2026-05-05 19:21 40.55969 34.12434 31794 ft 419 kts 253°
2026-05-05 19:21 40.53816 34.05411 31050 ft 410 kts 254°
2026-05-05 19:21 40.51695 33.98510 30279 ft 404 kts 254°
2026-05-05 19:21 40.49676 33.91680 29425 ft 395 kts 257°
2026-05-05 19:22 40.48008 33.84871 28590 ft 387 kts 259°
2026-05-05 19:22 40.46365 33.78203 27803 ft 380 kts 258°
2026-05-05 19:22 40.44504 33.71845 27043 ft 381 kts 244°
2026-05-05 19:22 40.40913 33.66695 26341 ft 387 kts 223°
2026-05-05 19:23 40.36636 33.62482 25630 ft 383 kts 221°
2026-05-05 19:23 40.32395 33.58312 24898 ft 379 kts 222°
2026-05-05 19:23 40.28227 33.54154 24172 ft 375 kts 222°
2026-05-05 19:23 40.24093 33.50011 23427 ft 372 kts 222°
2026-05-05 19:24 40.19991 33.45906 22598 ft 369 kts 221°
2026-05-05 19:24 40.15988 33.41785 21815 ft 363 kts 224°
2026-05-05 19:24 40.13495 33.38907 21334 ft 359 kts 225°
2026-05-05 19:25 40.10587 33.35536 20747 ft 355 kts 225°
2026-05-05 19:25 40.06838 33.31260 20065 ft 350 kts 224°
2026-05-05 19:25 40.03183 33.27109 19337 ft 346 kts 224°
2026-05-05 19:26 39.99428 33.23230 18660 ft 343 kts 218°
2026-05-05 19:26 39.95565 33.19610 17914 ft 340 kts 218°
2026-05-05 19:26 39.92401 33.16627 17251 ft 328 kts 218°
2026-05-05 19:26 39.90570 33.14887 16947 ft 325 kts 218°
2026-05-05 19:27 39.88748 33.13151 16595 ft 323 kts 218°
2026-05-05 19:27 39.86939 33.11428 16266 ft 321 kts 218°
2026-05-05 19:27 39.85138 33.09715 15934 ft 320 kts 218°
2026-05-05 19:27 39.83344 33.08009 15583 ft 319 kts 218°
2026-05-05 19:28 39.81556 33.06310 15229 ft 318 kts 218°
2026-05-05 19:28 39.79772 33.04615 14893 ft 316 kts 218°
2026-05-05 19:28 39.78001 33.02934 14561 ft 315 kts 218°
2026-05-05 19:28 39.76237 33.01261 14237 ft 313 kts 217°
2026-05-05 19:29 39.74478 32.99594 13881 ft 313 kts 217°
2026-05-05 19:29 39.72710 32.97920 13434 ft 314 kts 217°
2026-05-05 19:29 39.70973 32.96276 13075 ft 313 kts 217°
2026-05-05 19:29 39.69218 32.94615 12728 ft 310 kts 217°
2026-05-05 19:30 39.67482 32.92974 12474 ft 305 kts 217°
2026-05-05 19:30 39.65789 32.91376 12361 ft 296 kts 217°
2026-05-05 19:30 39.64160 32.89809 12177 ft 288 kts 223°
2026-05-05 19:30 39.63065 32.87656 11758 ft 289 kts 256°
2026-05-05 19:31 39.62984 32.85074 11452 ft 290 kts 283°
2026-05-05 19:31 39.63768 32.82656 11112 ft 295 kts 306°
2026-05-05 19:31 39.65252 32.80811 10760 ft 297 kts 329°
2026-05-05 19:31 39.67160 32.79945 10420 ft 296 kts 354°
2026-05-05 19:32 39.69192 32.79975 10263 ft 289 kts
2026-05-05 19:32 39.71180 32.80191 10097 ft 281 kts
2026-05-05 19:32 39.73090 32.80425 9868 ft 271 kts
2026-05-05 19:32 39.74949 32.80649 9573 ft 267 kts
2026-05-05 19:33 39.76799 32.80862 9282 ft 266 kts
2026-05-05 19:33 39.78640 32.81067 8991 ft 265 kts
2026-05-05 19:33 39.80478 32.81267 8691 ft 264 kts
2026-05-05 19:33 39.82309 32.81464 8407 ft 263 kts
2026-05-05 19:34 39.84134 32.81657 8120 ft 262 kts
2026-05-05 19:34 39.85949 32.81849 7840 ft 261 kts
2026-05-05 19:34 39.87760 32.82039 7561 ft 261 kts
2026-05-05 19:35 39.90757 32.82353 7094 ft 259 kts
2026-05-05 19:35 39.92549 32.82541 6875 ft 256 kts
2026-05-05 19:35 39.94322 32.82759 6774 ft 257 kts 11°
2026-05-05 19:35 39.95940 32.83671 6714 ft 250 kts 29°
2026-05-05 19:36 39.97392 32.84865 6570 ft 244 kts 33°
2026-05-05 19:36 39.98759 32.86144 6300 ft 241 kts 35°
2026-05-05 19:36 40.00092 32.87435 5981 ft 233 kts 35°
2026-05-05 19:36 40.01361 32.88660 5653 ft 222 kts 35°
2026-05-05 19:37 40.02569 32.89822 5355 ft 211 kts 35°
2026-05-05 19:37 40.03710 32.90916 5099 ft 202 kts 35°
2026-05-05 19:37 40.04818 32.91981 4830 ft 191 kts 34°
2026-05-05 19:37 40.05840 32.92960 4593 ft 172 kts 35°
2026-05-05 19:38 40.06758 32.93854 4276 ft 160 kts 35°
2026-05-05 19:38 40.07647 32.94699 4032 ft 157 kts 34°
2026-05-05 19:38 40.08509 32.95531 3826 ft 158 kts 34°
2026-05-05 19:38 40.09401 32.96424 3603 ft 156 kts 33°
2026-05-05 19:39 40.10281 32.97247 3410 ft 156 kts 35°
2026-05-05 19:39 40.11154 32.98077 3219 ft 155 kts 35°
2026-05-05 19:39 40.12001 32.98877 3134 ft 138 kts 36°
2026-05-05 19:39 40.12653 32.99508 3136 ft 95 kts 36°
2026-05-05 19:40 40.13003 32.99872 3134 ft 35 kts 57°
2026-05-05 19:40 40.13071 33.00054 3133 ft 13 kts 65°
2026-05-05 19:40 40.13101 33.00163 3133 ft 13 kts 101°
2026-05-05 19:40 40.13027 33.00188 3133 ft 12 kts 219°
2026-05-05 19:41 40.12965 33.00112 3133 ft 12 kts 216°
2026-05-05 19:41 40.12896 33.00046 3133 ft 13 kts 216°
2026-05-05 19:41 40.12800 32.99954 3133 ft 21 kts 216°
2026-05-05 19:41 40.12678 32.99837 3133 ft 22 kts 216°
2026-05-05 19:42 40.12558 32.99724 3133 ft 21 kts 215°
2026-05-05 19:42 40.12442 32.99613 3133 ft 20 kts 216°
2026-05-05 19:42 40.12329 32.99505 3133 ft 20 kts 218°
2026-05-05 19:42 40.12220 32.99400 3133 ft 19 kts 216°
2026-05-05 19:43 40.12114 32.99299 3133 ft 19 kts 216°
2026-05-05 19:43 40.11995 32.99185 3133 ft 23 kts 216°
2026-05-05 19:43 40.11872 32.99067 3133 ft 17 kts 216°
2026-05-05 19:43 40.11783 32.99075 3133 ft 13 kts 128°
2026-05-05 19:44 40.11709 32.99121 3133 ft 12 kts 184°
2026-05-05 19:44 40.11645 32.99053 3133 ft 12 kts 228°
2026-05-05 19:44 40.11598 32.98966 3133 ft 12 kts 231°
2026-05-05 19:44 40.11546 32.98900 3133 ft 8 kts 200°
2026-05-05 19:45 40.11504 32.98936 3133 ft 3 kts 131°
2026-05-05 19:45 40.11494 32.98950 3133 ft 0 kts 131°